This demonstration page uses our WeatherBlox Daily Observations layout. Learn more.

Left ArrowRight Arrow

Hourly Observations for September 10, 2021

Temp ( °F °C ) Dew Point ( °F °C ) Humidity (%) Winds ( mph kmh ) Pressure ( in mb ) Visibility ( mi km ) Precip ( " mm )
12:53 am 00:53 Clear 76 24.4 50 10 40 40 SE 8 13 29.94 1014 10 16 0.00 0.00
1:53 am 01:53 Clear 74 23.3 50 10 43 43 SE 7 11 29.94 1014 10 16 0.00 0.00
2:53 am 02:53 Clear 71 21.7 49 9.4 46 46 SE 8 13 29.94 1014 10 16 0.00 0.00
3:53 am 03:53 Clear 70 21.1 50 10 49 49 SE 8 13 29.94 1014 10 16 0.00 0.00
4:53 am 04:53 Clear 70 21.1 50 10 49 49 SE 8 13 29.94 1014 10 16 0.00 0.00
5:53 am 05:53 Clear 70 21.1 51 10.6 51 51 ESE 9 15 29.95 1014 10 16 0.00 0.00
6:53 am 06:53 Clear 68 20 52 11.1 57 57 SE 9 15 29.96 1015 10 16 0.00 0.00
7:53 am 07:53 Sunny 65 18.3 51 10.6 61 61 SSE 7 11 30.00 1016 10 16 0.00 0.00
8:53 am 08:53 Sunny 70 21.1 52 11.1 53 53 SSE 10 17 30.01 1016 10 16 0.00 0.00
9:53 am 09:53 Sunny 76 24.4 52 11.1 43 43 S 7 11 30.02 1017 10 16 0.00 0.00
10:53 am 10:53 undefined 82 27.8 52 11.1 35 35 S 7 11 30.02 1017 10 16 0.00 0.00
11:53 am 11:53 Sunny 87 30.6 52 11.1 30 30 SW 5 7 30.01 1016 10 16 0.00 0.00
12:53 pm 12:53 Sunny 91 32.8 50 10 25 25 W 6 9 29.98 1015 10 16 0.00 0.00
1:53 pm 13:53 Sunny 94 34.4 47 8.3 20 20 WSW 8 13 29.97 1015 10 16 0.00 0.00
2:53 pm 14:53 Sunny 95 35 44 6.7 17 17 WSW 7 11 29.95 1014 10 16 0.00 0.00
3:53 pm 15:53 Sunny 96 35.6 43 6.1 16 16 SW 8 13 29.92 1013 10 16 0.00 0.00
4:53 pm 16:53 Sunny 98 36.7 38 3.3 12 12 SSW 10 17 29.90 1013 10 16 0.00 0.00
5:53 pm 17:53 Sunny 97 36.1 37 2.8 12 12 SSW 6 9 29.89 1012 10 16 0.00 0.00
6:53 pm 18:53 Sunny 95 35 38 3.3 14 14 S 6 9 29.89 1012 10 16 0.00 0.00
7:53 pm 19:53 Sunny 91 32.8 38 3.3 15 15 W 7 11 29.91 1013 10 16 0.00 0.00
8:53 pm 20:53 Clear 86 30 38 3.3 18 18 ESE 5 7 29.92 1013 10 16 0.00 0.00
9:53 pm 21:53 Clear 85 29.4 40 4.4 20 20 SSE 9 15 29.94 1014 10 16 0.00 0.00
10:53 pm 22:53 Clear 79 26.1 41 5 26 26 SSE 8 13 29.95 1014 10 16 0.00 0.00
11:53 pm 23:53 Clear 77 25 43 6.1 30 30 SE 9 15 29.95 1014 10 16 0.00 0.00

Powered by AerisWeather